This is the latest recevied weather packets stored in our database for station/object N5UKZ-WX. If no packets are shown the sender has not sent any weather packets the latest 10 day(s).
| Time | Temp. | Humidity | Pressure | Rain* | Wind** | Luminosity | Snow |
|---|---|---|---|---|---|---|---|
| 1777755985 | 21.67° C | 71% | 1016.3 hPa | 0 mm | - | - | - |
| 1777755085 | 21.67° C | 76% | 1016 hPa | 0 mm | - | - | - |
| 1777754185 | 21.67° C | 77% | 1016.3 hPa | 0 mm | - | - | - |
| 1777753285 | 21.11° C | 79% | 1016.3 hPa | 0 mm | - | - | - |
| 1777752384 | 21.11° C | 80% | 1016.6 hPa | 0 mm | - | - | - |
| 1777751484 | 21.11° C | 84% | 1017 hPa | 0 mm | - | - | - |
| 1777750584 | 20.56° C | 87% | 1017 hPa | 0 mm | - | - | - |
| 1777749684 | 21.11° C | 88% | 1017 hPa | 0 mm | - | - | - |
| 1777748784 | 21.11° C | 94% | 1017 hPa | 0 mm | - | - | - |
| 1777747883 | 20° C | 99% | 1017 hPa | 0 mm | - | - | - |
| 1777746983 | 20.56° C | 100% | 1017 hPa | 0 mm | - | - | - |
| 1777746083 | 20° C | 100% | 1017 hPa | 0 mm | - | - | - |
| 1777745183 | 18.33° C | 100% | 1017 hPa | 0 mm | - | - | - |
| 1777744283 | 17.78° C | 100% | 1017.3 hPa | 0 mm | - | - | - |
| 1777743383 | 17.78° C | 100% | 1017.3 hPa | 0 mm | - | - | - |
| 1777742482 | 16.67° C | 100% | 1017.7 hPa | 0 mm | - | - | - |
| 1777741582 | 17.78° C | 100% | 1017.7 hPa | 0 mm | - | - | - |
| 1777740682 | 17.22° C | 100% | 1018 hPa | 0 mm | - | - | - |
| 1777739782 | 16.67° C | 100% | 1018 hPa | 0 mm | - | - | - |
| 1777738882 | 16.67° C | 100% | 1018 hPa | 0 mm | - | - | - |
| 1777737981 | 16.11° C | 100% | 1018 hPa | 0 mm | - | - | - |
| 1777737081 | 16.11° C | 100% | 1018 hPa | 0 mm | - | - | - |
| 1777736181 | 16.67° C | 100% | 1018 hPa | 0 mm | - | - | - |
| 1777735281 | 16.11° C | 100% | 1018 hPa | 0 mm | - | - | - |
| 1777734381 | 15.56° C | 100% | 1017.7 hPa | 0 mm | - | - | - |
* Rain latest hour (hover to see other rain measurements)
** Current wind speed in m/s (hover to see current wind gust speed)